Notices

What's New in latest Release from April 7th, 2021:

- Updated Glossary, including Speed of Maximum Gust, and Total Hourly Precipitation

- Updated national and regional climate services offices contacts and prices information

- Addition of station inventory lists for 1981-2010, 1971-2000, and 1961-1990 Normals.

If you haven't already, please take our survey and provide feedback about our website: https://eccc.sondage-survey.ca/f/LanguageSelection.aspx?s=442ca660-fcf1-47c0-95a9-59707d6fd709

Hourly Data Report for March 02, 2021

NANAIMO A
BRITISH COLUMBIA
Current Station Operator: NAVCAN

49°03'16.000" N
123°52'12.000" W
28.00 m
1025365
YCD

Download Data

Hourly Data (March 2021)
Hourly Data Report for March 2, 2021
TIME
LST
Temp Definition
°C
Dew Point Definition
°C
Rel Hum Definition
%
Precip. Amount Definition
mm

Wind Dir Definition
10's deg

Wind Spd Definition
km/h
Visibility Definition
km
Stn Press Definition
kPa
Hmdx Definition


Wind Chill Definition


Weather Definition


00:00 2.1 -0.3 84 LegendMM 22 9 LegendMM 101.51     LegendNANA
01:00 1.3 -0.7 87 LegendMM 29 1 LegendMM 101.49     LegendNANA
02:00 0.6 -1.2 88 LegendMM 28 5 LegendMM 101.51     LegendNANA
03:00 -1.0 -3.6 83 LegendMM 5 2 LegendMM 101.48   -2 LegendNANA
04:00 0.2 -2.1 85 LegendMM 26 12 LegendMM 101.51     LegendNANA
05:00 -1.6 -3.1 89 LegendMM 21 2 LegendMM 101.47   -2 LegendNANA
06:00 -2.8 -3.8 93 LegendMM 5 3 LegendMM 101.46   -4 LegendNANA
07:00 -2.5 -3.4 93 LegendMM   0 LegendMM 101.43     LegendNANA
08:00 -0.7 -2.0 91 LegendMM 20 5 LegendMM 101.44   -2 LegendNANA
09:00 1.9 -0.2 86 LegendMM 19 3 LegendMM 101.47     LegendNANA
10:00 4.4 0.6 77 LegendMM 16 8 LegendMM 101.47     LegendNANA
11:00 6.2 -1.0 60 LegendMM 16 7 LegendMM 101.46     LegendNANA
12:00 7.1 -2.0 52 LegendMM 8 13 LegendMM 101.42     LegendNANA
13:00 7.5 -1.5 53 LegendMM 10 8 LegendMM 101.35     LegendNANA
14:00 7.4 -1.8 52 LegendMM 10 10 LegendMM 101.29     LegendNANA
15:00 7.6 -1.4 53 LegendMM 10 13 LegendMM 101.22     LegendNANA
16:00 7.2 -0.7 57 LegendMM 9 10 LegendMM 101.16     LegendNANA
17:00 6.8 -0.5 60 LegendMM 8 9 LegendMM 101.13     LegendNANA
18:00 6.5 -1.3 57 LegendMM 19 6 LegendMM 101.10     LegendNANA
19:00 5.1 -0.5 67 LegendMM 18 3 LegendMM 101.06     LegendNANA
20:00 4.6 -0.7 69 LegendMM 22 2 LegendMM 101.03     LegendNANA
21:00 3.7 -0.2 76 LegendMM 19 4 LegendMM 101.01     LegendNANA
22:00 3.7 -0.1 76 LegendMM 1 2 LegendMM 101.00     LegendNANA
23:00 3.5 -0.1 77 LegendMM 0 1 LegendMM 100.97     LegendNANA

Notes on Data Quality.

Legend

  • E = Estimated
  • M = Missing
  • NA = Not Available*
  • [empty] = Indicates an unobserved value
Date modified: